Starlink 5774

operational
NORAD ID: 56029 Int'l Des: 2023-042 Owner: SPXS Country: US Constellation: starlink
LEOCIRCULAR

About Starlink 5774

Description loading...

Live Position

Loading 3D Globe...

Upcoming Passes

Altitude History

Altitude vs Time

uPlot chart will show altitude changes over time

Two-Line Element Set

1 56029U 23042AV 25306.47285770 .00000220 00000-0 31393-4 0 9996
2 56029 43.0050 14.3564 0001551 264.0066 96.0599 15.02537112143929
Epoch: Nov 2, 2025 • Age: 29 hours

Current Status

Altitude 561.0 km
Velocity 7.59 km/s
Sub-Earth Point 32.97°N, 148.69°W
Launch Date Mar 24, 2023
Age 2.6 years
Type internet

Technical Details

Classification Payload
Mass 305.00 kg
Dry Mass 290.00 kg
Total Mass 305.00 kg
Length 0.20 m
Diameter 2.80 m
Span 9.00 m
Shape Box + pan
Manufacturer SPXS
Bus Type Starlink
Phase Status In Orbit
Owner/State SPXS/US

Large Constellations

Loading constellations...